Location: Betra
(48.4113°N, 8.6634°E)
Time: 18:11:24
(UTC+00:00)

BREEZE-M R/B - Pass Details

Date: 23 May 2024
Orbit: 667 x 26488 km, 48.9° (Epoch: 15 June)

Event Time Altitude Azimuth Distance (km) Brightness Sun altitude
Exits shadow 00:57:43 24° 174° (S) 1,843 4.5 -17.7°
Maximum altitude 01:00:13 36° 126° (SE) 1,855 4.8 -17.5°
Drops below altitude 10° 01:12:02 10° 66° (ENE) 6,430 8.5 -16.7°
Sets 01:22:11 0° 61° (ENE) 10,283 9.8 -15.9°
